Terminal Aerodrome Forecast
Issued by NWS

Home | Current Version | Previous Version | Text Only | Print | Product List | Glossary On
Versions: 1 2 3 4 5 6 7 8 9 10 11 12 13 14 15 16 17 18 19 20 21 22 23 24 25 26 27 28 29 30
000
FTUS43 KDTX 291127
TAFPTK
TAF
KPTK 291127Z 2912/3012 18007KT P6SM SCT250
     FM291400 19014G22KT P6SM BKN250
     FM291800 19018G27KT P6SM OVC150
     FM292300 20019G29KT 4SM -SHRASN OVC025
     FM300200 24015G24KT 2SM -DZ BR OVC005
     FM300600 23012KT P6SM OVC010=

USA.gov is the U.S. government's official web portal to all federal, state and local government web resources and services.